Home > Weather > Monthey > Past weeks

Flag for Switzerland Weather for the Past 2 Weeks in Monthey, Valais, Switzerland

Now
35 °F

Chilly.


Feels Like: 32 °F
Forecast: 28 / 42 °F
Wind: 3 mph from South

Location: Aigle

Current Time: Feb 11, 2016 at 10:20:12 PM

Latest Report: Feb 11, 2016 at 9:00 PM


Visibility: N/A

Pressure: 29.83 "Hg

Humidity: 90%

Dew point: 33 °F

Location of MontheyLocation

Historic Weather in Monthey — Graph

°F

Monthey Temperature Yesterday

Maximum temperature yesterday: 41 °F (at 3:00 AM)
Minimum temperature yesterday: 36 °F (at 9:00 PM)
Average temperature yesterday: 39 °F

High & Low Weather Summary for the Past Weeks

 TemperatureHumidityPressure
High57 °F (Feb 1, 2:00 PM)100% (Feb 5, 9:00 AM)30.60 "Hg (Feb 5, 9:00 AM)
Low31 °F (Feb 11, 7:00 AM)32% (Feb 7, 8:00 AM)29.47 "Hg (Feb 9, 6:00 PM)
Average44 °F79%30.15 "Hg
* Reported Jan 27 9:00 PM — Feb 11 9:00 PM, Monthey, Weather by CustomWeather, © 2016

Note: Actual official high and low records may vary slightly from our data, if they occured in-between our weather recording intervals... More about our weather records

Advertising

Monthey Weather History for the Previous 24 Hours

 ConditionsComfort  
Time TempWeatherWind HumidityBarometerVisibility
9:00 PM
Thu, Feb 11
35 °FChilly.3 mph90%29.83 "HgN/A
8:00 PM36 °FChilly.3 mph82%29.82 "HgN/A
7:00 PM40 °FOvercast.3 mph65%29.80 "Hg9 mi
6:00 PM39 °FChilly.3 mph66%29.78 "HgN/A
5:00 PM40 °FChilly.7 mph65%29.78 "HgN/A
4:00 PM40 °FQuite cool.10 mph58%29.76 "HgN/A
3:00 PM42 °FQuite cool.2 mph48%29.75 "HgN/A
2:00 PM42 °FQuite cool.18 mph49%29.76 "HgN/A
1:00 PM42 °FPartly sunny.7 mph56%29.81 "Hg22 mi
12:00 PM42 °FQuite cool.6 mph59%29.85 "HgN/A
11:00 AM40 °FChilly.9 mph59%29.87 "HgN/A
10:00 AM37 °FChilly.8 mph68%29.87 "HgN/A
9:00 AM34 °FChilly.8 mph81%29.88 "HgN/A
8:00 AM32 °FChilly.5 mph87%29.90 "HgN/A
7:00 AM31 °FChilly.3 mph92%29.90 "HgN/A
5:00 AM32 °FChilly.3 mph94%29.89 "HgN/A
Weather by CustomWeather, © 2016

See weather overviewHow to use our weather pages